Terug naar catalogus

STARLINK-5441

ActiefCommunicatieVLEO
NORAD 54787·PAYLOAD·🇺🇸 United States

Gelanceerd Dec 17, 2022 vanaf Cape Canaveral Space Force Station

Loading…

Volgende Passages (komende 24 uur)

TLE

VersSource: CelesTrak SupGP

Epoch: Sep 14, 2026, 22:21 UTC

1 54787C 22175AF  26257.93173611  .00047309  00000+0  13978-2 0  2570
2 54787  53.1599 263.9148 0001229  85.4210 192.1754 15.34365200    11

Volg STARLINK-5441 in realtime met AllMySat

Download on the App Store